Regional Weather Roundup
Issued by NWS Portland, ME

Home | Current Version | Previous Version | Text Only | Print | Product List | Glossary On
Versions: 1 2 3 4 5 6 7 8 9 10 11 12 13 14 15 16 17 18 19 20 21 22 23 24 25 26 27 28 29 30 31 32 33 34 35 36 37 38 39 40 41 42 43 44 45 46 47 48 49 50
000
ASUS41 KGYX 110010
RWRGYX
WEATHER ROUNDUP FOR MAINE AND NEW HAMPSHIRE
NATIONAL WEATHER SERVICE GRAY ME
800 PM EDT THU JUL 10 2014

MEZ002-005-006-010-012-015-018-020-021-024-026-027-029-110100-
MAINE

CITY           SKY/WX    TMP DP  RH WIND       PRES   REMARKS
PORTLAND       PTCLDY    75  52  44 SW6       30.09R
6HR MIN TEMP:  75; 6HR MAX TEMP:  80;

SANFORD        CLEAR     73  52  46 W5        30.11R
BAR HARBOR     CLEAR     73  55  53 CALM      30.08R
WISCASSET      CLEAR     69  63  81 CALM      30.10R
6HR MIN TEMP:  69; 6HR MAX TEMP:  80;

ROCKLAND       CLEAR     72  59  64 CALM      30.07R
FRYEBURG       CLEAR     71  51  49 CALM      30.12R
6HR MIN TEMP:  71; 6HR MAX TEMP:  82;

LEWISTONAUBURN CLEAR     73  52  46 N6        30.11R
AUGUSTA        CLEAR     73  51  46 NW6       30.10R
6HR MIN TEMP:  73; 6HR MAX TEMP:  78;

WATERVILLE     CLEAR     72  48  43 NW6       30.06R
BANGOR         PTCLDY    71  53  52 NW6       30.09R
6HR MIN TEMP:  71; 6HR MAX TEMP:  80;

GREENVILLE       N/A     62  49  62 CALM      30.12R
6HR MIN TEMP:  62; 6HR MAX TEMP:  72;

MILLINOCKET    CLEAR     68  49  50 NW8       30.11R
6HR MIN TEMP:  68; 6HR MAX TEMP:  77;

HOULTON        PTCLDY    66  48  52 W6        30.07R
6HR MIN TEMP:  66; 6HR MAX TEMP:  77;

PRESQUE ISLE   PTCLDY    64  46  52 W8        30.08R
6HR MIN TEMP:  64; 6HR MAX TEMP:  73;

FRENCHVILLE    PTCLDY    61  49  64 W7        30.06R
6HR MIN TEMP:  61; 6HR MAX TEMP:  70;

CARIBOU        PTCLDY    63  51  65 CALM      30.06R
6HR MIN TEMP:  63; 6HR MAX TEMP:  73;

$$

NHZ002-005-008-009-011-012-014-110100-
NEW HAMPSHIRE

CITY           SKY/WX    TMP DP  RH WIND       PRES   REMARKS
PORTSMOUTH     PTCLDY    76  58  51 SW2       30.09R
ROCHESTER      CLEAR     74  54  49 CALM      30.11R
6HR MIN TEMP:  74; 6HR MAX TEMP:  79;

NASHUA         PTCLDY    77  61  57 CALM      30.12R
MANCHESTER     PTCLDY    78  50  37 W5        30.10R
6HR MIN TEMP:  77; 6HR MAX TEMP:  81;

CONCORD        CLEAR     75  51  43 NW5       30.12R
6HR MIN TEMP:  75; 6HR MAX TEMP:  80;

LACONIA        CLEAR     73  52  46 CALM      30.12R
PLYMOUTH       FAIR      70  55  58 CALM      30.13R
BERLIN         CLEAR     68  49  50 NW3       30.15R
6HR MIN TEMP:  68; 6HR MAX TEMP:  75;

WHITEFIELD     CLEAR     68  48  48 CALM      30.15R
6HR MIN TEMP:  68; 6HR MAX TEMP:  74;

JAFFREY        CLEAR     71  54  54 CALM      30.16R
6HR MIN TEMP:  71; 6HR MAX TEMP:  78;

LEBANON        CLEAR     69  58  67 CALM      30.12R
6HR MIN TEMP:  69; 6HR MAX TEMP:  80;

MT WASHINGTON  PTCLDY    45  37  76 W32         N/A
6HR MIN TEMP:  43; 6HR MAX TEMP:  49;

$$

VTZ005-007-008-110100-
VERMONT

CITY           SKY/WX    TMP DP  RH WIND       PRES   REMARKS
ST JOHNSBURY     N/A     69  48  47 MISG      30.13R
MONTPELIER     PTCLDY    67  48  50 NW3       30.19R
BURLINGTON     PTCLDY    71  49  45 NE6       30.15R
$$

MAZ007-012-024-CTZ003-RIZ002-NYZ038-NYZ072-110100-
SOUTHERN NEW ENGLAND AND NY

CITY           SKY/WX    TMP DP  RH WIND       PRES   REMARKS
BOSTON         PTCLDY    79  53  40 W8        30.11R
WORCESTER      CLEAR     73  57  57 NW3       30.15R
NANTUCKET      CLOUDY    66  64  93 S3        30.12R FOG
PROVIDENCE     MOCLDY    77  64  64 S7        30.11R
HARTFORD       MOCLDY    78  57  48 N5        30.10R
ALBANY         MOCLDY    74  49  41 NW9       30.13R
NEW YORK CITY  CLOUDY    77  60  55 S5        30.10R
$$

ANZ081-ANZ082-ANZ150-NHZ014-MEZ023>029-110100-
COASTAL MARINE OBSERVATIONS

STATION/POSITION TIME  TEMP    WIND        PRES    WAVE
                       AIR SEA DIR/SP/G            HT/PER
                 (UTC) (F)     (DEG/KT/KT) (MB)    (FT/S)
MOUNT DESERT ROC 0000   63                 1018.7R
MATINICUS ROCK   2300          230/ 13/ 13 1018.2R
PORTLAND WX BUOY 0000   67 59  250/  8/  8 1018.7R   2/ 8
WELLS            0000   76 47  340/  3/  5 1018.4R
ISLE OF SHOALS   2300   75     250/  5/  5 1018.3R
JEFFREYS LEDGE   0000      65                N/A     3/ 8
CASHES LEDGE BUO 0000   65 63  220/  6/  8 1018.3R   3/ 8
$$

.............KEY..............
   WCI - WIND CHILL
   TC  - TEMPERATURE IN CELSIUS
   VSB - VISIBILITY IN MILES
   HX  - HEAT INDEX
   FAIR- INDICATES FEW OR NO CLOUDS BELOW 12,000 FT, WITH NO
         SIGNIFICANT WEATHER AND/OR OBSTRUCTIONS TO VISIBILITY.




USA.gov is the U.S. government's official web portal to all federal, state and local government web resources and services.